Location: Bouchavesnes-Bergen
(49.9859°N, 2.9203°E)
Time: 11:49:51
(UTC+00:00)

Cosmos 2237 Rocket - Pass Details

Date: 09 March 2021
Orbit: 835 x 850 km, 71.0° (Epoch: 13 April)

Event Time Altitude Azimuth Distance (km) Brightness Sun altitude
Rises 03:58:09 0° 333° (NNW) 3,424 5.3 -22.4°
Reaches altitude 10° 04:00:47 10° 341° (NNW) 2,483 4.6 -22.0°
Maximum altitude 04:06:08 40° 50° (NE) 1,234 3.5 -21.2°
Drops below altitude 10° 04:11:25 10° 120° (ESE) 2,461 5.2 -20.4°
Sets 04:14:01 0° 127° (SE) 3,390 5.8 -20.0°
